Location: Curicchi
(45.0167°N, 12.0500°E)
Time: 15:50:37
(UTC+00:00)

STARLINK-61 - Pass Details

Date: 07 June 2020
Orbit: 505 x 516 km, 53.0° (Epoch: 11 July)

Event Time Altitude Azimuth Distance (km) Brightness Sun altitude
Exits shadow 01:36:19 26° 233° (SW) 1,038 4.5 -14.5°
Maximum altitude 01:38:27 85° 148° (SSE) 517 3.4 -14.3°
Drops below altitude 10° 01:42:23 10° 58° (ENE) 1,737 7.3 -13.9°
Sets 01:44:36 0° 58° (ENE) 2,628 8.5 -13.7°
